Location: Maddington
(51.2000°N, 1.9167°W)
Time: 14:33:03
(UTC+00:00)

USA 234 - Pass Details

Date: 18 September 2020
Orbit: 1102 x 1106 km, 123.0° (Epoch: 16 October)

Event Time Altitude Azimuth Distance (km) Brightness Sun altitude
Exits shadow 20:19:21 - 61° (ENE) 3,341 5.5 -19.6°
Reaches altitude 10° 20:20:22 10° 63° (ENE) 2,968 5.2 -19.7°
Maximum altitude 20:26:44 51° 138° (SE) 1,364 3.3 -20.6°
Drops below altitude 10° 20:33:03 10° 214° (SW) 2,958 5.5 -21.4°
Sets 20:35:37 0° 219° (SW) 3,914 6.2 -21.8°
